Location: Béaulencourt
(50.0796°N, 2.8795°E)
Time: 00:24:18
(UTC+00:00)

MOS 1 Rocket - Pass Details

Date: 20 January 2026
Orbit: 608 x 815 km, 97.4° (Epoch: 18 February)

Event Time Altitude Azimuth Distance (km) Brightness Sun altitude
Rises 06:59:01 0° 8° (N) 3,013 6.4 -6.2°
Reaches altitude 10° 07:01:23 10° 1° (N) 2,066 5.5 -5.9°
Maximum altitude 07:05:36 42° 291° (WNW) 898 3.5 -5.3°
Drops below altitude 10° 07:09:39 10° 220° (SW) 1,976 5.5 -4.7°
Sets 07:11:51 0° 214° (SW) 2,866 6.4 -4.4°
